Location: *
(53.4003°S, 165.3236°W)
Time: 03:26:34
(UTC+00:00)

SL-27 R/B - Pass Details

Date: 11 December 2023
Orbit: 356 x 390 km, 74.7° (Epoch: 24 February)

Event Time Altitude Azimuth Distance (km) Brightness Sun altitude
Exits shadow 12:19:50 19° 326° (NW) 1,006 3.6 -11.4°
Maximum altitude 12:21:55 71° 244° (WSW) 425 2.2 -11.3°
Drops below altitude 10° 12:25:07 10° 159° (SSE) 1,470 6.6 -11.1°
Sets 12:27:12 0° 156° (SSE) 2,349 8.3 -11.0°
